Погода в Сурах

Россия / Орловская область     52°58′59″N   37°20′06″E
темп.,
°C
ветер,
м/с
пор.,
м/с
влажн.,
%
обл.,
%
осадки,
мм/ч
давл.,
гПа
погр.,
м
18 мая, ср
ср1800:00+5сз5991100 0.1 1008424
03:00+5зсз5997100 0.9 1008377
06:00+6сз5997100 2.6 1009497
09:00+6ссз51096100 2.9 1011482
12:00+8с599396 0.2 1012653
15:00+13с6870100 0.5 10131250
18:00+13с68675 0.3 1013989
21:00+7ссз4118462 0.3 1016244
19 мая, чт
чт1900:00+6ссз410905 0.0 1017242
03:00+4ссз37925 0.0 1018116
06:00+5сз36895 0.0 1018162
09:00+10зсз57655 0.0 1018648
12:00+14зсз685633 0.0 10171672
15:00+15сз585999 0.1 10151558
18:00+13ссз696457 0.2 10151080
21:00+9с348279 0.3 101672
20 мая, пт
пт2000:00+9ссз2581100 0.0 1017170
03:00+8сз358567 0.1 1017170
06:00+7ссз35915 0.0 1018164
09:00+11ссз45665 0.0 1019856
12:00+13ссз45507 0.0 10191866
15:00+13ссз3449100 0.0 10171834
18:00+12всв2262100 0.1 1016546
21:00+9вюв3569100 0.1 101698
21 мая, сб
сб2100:00+8юв4872100 0.0 1014269
03:00+7юв3685100 0.3 1012281
06:00+7в4690100 0.9 1010302
09:00+7в598995 1.7 1010678
12:00+12в675452 0.0 10091701
15:00+13всв554717 0.0 10091995
18:00+12всв565913 0.0 1009882
21:00+7всв35725 0.0 101176
22 мая, вс
вс2200:00+6в347392 0.0 101056
03:00+4в337590 0.0 101029
06:00+5всв3676100 0.0 1009163
09:00+9всв5657100 0.0 1008712
12:00+11всв5548100 0.0 10081958
15:00+12всв4548100 0.0 10081862
18:00+11св3560100 0.1 10081108
21:00+8св487098 0.1 1009196